カタログに戻る

FENGYUN 1C DEB

運用中PO
NORAD 30139·DEBRIS·🇨🇳 China

打ち上げ May 10, 1999 から Taiyuan Satellite Launch Center

Loading…

次のパス (今後24時間)

TLE

経年Source: Space-Track

元期: Sep 9, 2026, 18:02 UTC

1 30139U 99025SU  26252.75163459  .00001368  00000-0  81962-3 0  9995
2 30139  98.3575  79.9587 0128570 241.5403 177.3962 14.04517612    19

AllMySatでFENGYUN 1C DEBをリアルタイム追跡

Download on the App Store